Jefferson, NC

1:20 PM EST on November 12, 2019 (GMT -0500)
Ashe County

Weather History for KGEV - June, 2019

Change the Weather History Date:

Saturday, June 1, 2019

  Actual Average Record
Temperature  
Mean Temperature 62 °F -  
Max Temperature 72 °F 74 °F 84 °F (2011)
Min Temperature 52 °F 51 °F 32 °F (1966)
Degree Days  
Heating Degree Days 3    
Growing Degree Days 12 (Base 50)    
Moisture  
Dew Point 51 °F    
Average Humidity 67    
Maximum Humidity 91    
Minimum Humidity 47    
Precipitation  
Precipitation 0.00 in - - ()
Sea Level Pressure  
Sea Level Pressure 29.98 in    
Wind  
Wind Speed 6 mph (NW)    
Max Wind Speed 12 mph    
Max Gust Speed 20 mph    
Visibility 10 miles    
Events      
Averages and records for this station are not official NWS values.
T = Trace of Precipitation, MM = Missing Value Source: NWS Daily Summary

Daily Weather History Graph

Daily Weather History Graph

Search for Another Location

Airport or City:

Astronomy

Jun. 01, 2019 Rise Set
Actual Time 6:09 AM EDT 8:38 PM EDT
Civil Twilight 5:39 AM EDT 9:08 PM EDT
Nautical Twilight 5:02 AM EDT 9:45 PM EDT
Astronomical Twilight 4:21 AM EDT 10:26 PM EDT
Moon 5:08 AM EDT (6/1) 6:54 PM EDT (6/1)
Length of Visible Light 15h 28m
Length of Day
14h 28m
Waning Crescent, 4% of the Moon is Illuminated
Jun 1
Waning Crescent
Jun 3
New
Jun 10
First Quarter
Jun 17
Full
Jun 25
Last Quarter

Hourly Weather History & Observations

Time (EDT) Temp. Dew Point Humidity Pressure Visibility Wind Dir Wind Speed Gust Speed Precip Events Conditions
12:05 AM 56.5 °F 49.3 °F 77% 29.98 in 10.0 mi NW 6.9 mph - N/A   Clear
12:25 AM 56.5 °F 49.3 °F 77% 29.97 in 10.0 mi NW 10.4 mph 18.4 mph N/A   Clear
12:45 AM 56.1 °F 50.0 °F 80% 29.97 in 10.0 mi WNW 10.4 mph 19.6 mph N/A   Clear
1:05 AM 55.8 °F 50.0 °F 81% 29.97 in 10.0 mi NW 8.1 mph 16.1 mph N/A   Clear
1:25 AM 56.1 °F 50.0 °F 80% 29.97 in 10.0 mi NW 11.5 mph 17.3 mph N/A   Clear
1:45 AM 55.6 °F 50.0 °F 81% 29.97 in 10.0 mi NW 11.5 mph 18.4 mph N/A   Clear
2:05 AM 55.2 °F 50.2 °F 83% 29.97 in 10.0 mi NW 11.5 mph - N/A   Clear
2:25 AM 55.0 °F 50.5 °F 85% 29.96 in 10.0 mi NNW 8.1 mph 19.6 mph N/A   Clear
2:45 AM 54.9 °F 50.5 °F 85% 29.96 in 10.0 mi NNW 10.4 mph 17.3 mph N/A   Clear
3:05 AM 55.2 °F 50.2 °F 83% 29.96 in 10.0 mi NW 11.5 mph 19.6 mph N/A   Clear
3:25 AM 56.1 °F 49.6 °F 79% 29.95 in 10.0 mi NW 8.1 mph - N/A   Clear
4:05 AM 54.9 °F 50.0 °F 84% 29.95 in 10.0 mi Calm Calm - N/A   Clear
4:25 AM 53.8 °F 49.5 °F 85% 29.95 in 10.0 mi Calm Calm - N/A   Clear
4:45 AM 52.5 °F 49.8 °F 91% 29.95 in 10.0 mi Calm Calm - N/A   Clear
5:05 AM 54.3 °F 49.6 °F 84% 29.95 in 10.0 mi SW 3.5 mph - N/A   Clear
5:25 AM 54.1 °F 49.8 °F 85% 29.96 in 10.0 mi Calm Calm - N/A   Clear
5:45 AM 55.6 °F 49.6 °F 80% 29.96 in 10.0 mi Calm Calm - N/A   Clear
6:05 AM 54.0 °F 50.0 °F 86% 29.97 in 10.0 mi West 4.6 mph - N/A   Clear
6:25 AM 53.6 °F 50.0 °F 88% 29.97 in 10.0 mi West 3.5 mph - N/A   Clear
6:45 AM 54.3 °F 50.0 °F 85% 29.98 in 10.0 mi WNW 3.5 mph - N/A   Clear
7:25 AM 55.8 °F 50.4 °F 82% 29.99 in 10.0 mi West 5.8 mph - N/A   Clear
7:45 AM 57.2 °F 50.4 °F 78% 29.99 in 10.0 mi West 6.9 mph - N/A   Clear
8:05 AM 57.7 °F 50.5 °F 77% 29.99 in 10.0 mi West 6.9 mph - N/A   Clear
8:25 AM 59.0 °F 50.7 °F 74% 29.99 in 10.0 mi Calm Calm - N/A   Clear
8:45 AM 59.7 °F 51.1 °F 73% 30.00 in 10.0 mi Calm Calm - N/A   Clear
9:05 AM 59.4 °F 51.8 °F 76% 30.01 in 10.0 mi North 4.6 mph - N/A   Clear
9:25 AM 59.9 °F 51.4 °F 74% 30.01 in 10.0 mi NNW 6.9 mph - N/A   Clear
9:45 AM 61.0 °F 51.6 °F 71% 30.01 in 10.0 mi NNW 8.1 mph - N/A   Clear
10:05 AM 60.8 °F 51.6 °F 72% 30.01 in 10.0 mi NW 6.9 mph - N/A   Clear
10:25 AM 62.1 °F 52.2 °F 70% 30.01 in 10.0 mi NW 5.8 mph - N/A   Clear
10:45 AM 63.9 °F 52.3 °F 66% 30.01 in 10.0 mi North 4.6 mph - N/A   Clear
11:05 AM 65.1 °F 52.3 °F 63% 30.01 in 10.0 mi NNE 4.6 mph - N/A   Clear
11:25 AM 65.7 °F 53.1 °F 64% 30.02 in 10.0 mi North 8.1 mph - N/A   Clear
11:45 AM 66.7 °F 54.0 °F 63% 30.01 in 10.0 mi NNW 6.9 mph - N/A   Clear
12:05 PM 67.3 °F 53.4 °F 61% 30.01 in 10.0 mi NNW 5.8 mph - N/A   Clear
12:25 PM 69.3 °F 54.5 °F 59% 30.01 in 10.0 mi NW 5.8 mph - N/A   Mostly Cloudy
12:45 PM 69.1 °F 51.4 °F 53% 30.01 in 10.0 mi North 4.6 mph - N/A   Mostly Cloudy
1:05 PM 70.3 °F 51.6 °F 51% 30.00 in 10.0 mi ENE 5.8 mph - N/A   Mostly Cloudy
1:25 PM 68.0 °F 50.7 °F 54% 30.00 in 10.0 mi NNE 3.5 mph - N/A   Mostly Cloudy
1:45 PM 70.0 °F 51.6 °F 52% 29.99 in 10.0 mi ENE 6.9 mph - N/A   Mostly Cloudy
2:05 PM 68.5 °F 52.0 °F 55% 29.98 in 10.0 mi North 5.8 mph - N/A   Overcast
2:25 PM 68.7 °F 52.2 °F 55% 29.98 in 10.0 mi North 4.6 mph - N/A   Overcast
2:45 PM 68.9 °F 53.6 °F 58% 29.97 in 10.0 mi WNW 5.8 mph - N/A   Mostly Cloudy
3:05 PM 68.2 °F 53.2 °F 59% 29.97 in 10.0 mi NNW 4.6 mph - N/A   Mostly Cloudy
3:25 PM 70.0 °F 52.7 °F 54% 29.97 in 10.0 mi NW 5.8 mph - N/A   Mostly Cloudy
3:45 PM 70.2 °F 53.1 °F 55% 29.97 in 10.0 mi NNW 4.6 mph - N/A   Mostly Cloudy
4:05 PM 71.1 °F 51.3 °F 49% 29.97 in 10.0 mi NNW 6.9 mph - N/A   Scattered Clouds
4:25 PM 71.4 °F 50.4 °F 47% 29.96 in 10.0 mi Calm Calm - N/A   Clear
4:45 PM 72.5 °F 51.3 °F 47% 29.96 in 10.0 mi North 3.5 mph - N/A   Clear
5:05 PM 71.8 °F 50.7 °F 47% 29.96 in 10.0 mi Calm Calm - N/A   Scattered Clouds
5:25 PM 71.2 °F 51.6 °F 50% 29.96 in 10.0 mi NNW 3.5 mph - N/A   Overcast
5:45 PM 70.7 °F 52.2 °F 52% 29.96 in 10.0 mi Calm Calm - N/A   Overcast
6:05 PM 72.3 °F 52.3 °F 49% 29.96 in 10.0 mi NW 6.9 mph - N/A   Mostly Cloudy
6:25 PM 70.5 °F 52.5 °F 53% 29.96 in 10.0 mi NW 4.6 mph - N/A   Scattered Clouds
6:45 PM 70.0 °F 52.0 °F 53% 29.96 in 10.0 mi NW 3.5 mph - N/A   Scattered Clouds
7:25 PM 70.3 °F 53.1 °F 54% 29.96 in 10.0 mi WNW 4.6 mph - N/A   Scattered Clouds
7:45 PM 70.2 °F 52.3 °F 53% 29.96 in 10.0 mi West 8.1 mph - N/A   Scattered Clouds
8:05 PM 69.1 °F 52.7 °F 56% 29.97 in 10.0 mi WNW 3.5 mph - N/A   Clear
8:25 PM 68.0 °F 52.9 °F 58% 29.97 in 10.0 mi NNW 3.5 mph - N/A   Clear
8:45 PM 67.1 °F 52.5 °F 59% 29.97 in 10.0 mi NW 3.5 mph - N/A   Scattered Clouds
9:05 PM 66.2 °F 52.7 °F 62% 29.97 in 10.0 mi NW 3.5 mph - N/A   Scattered Clouds
9:25 PM 66.7 °F 51.4 °F 58% 29.97 in 10.0 mi Calm Calm - N/A   Clear
9:45 PM 66.7 °F 51.8 °F 59% 29.98 in 10.0 mi Calm Calm - N/A   Clear
10:05 PM 66.0 °F 51.8 °F 60% 29.98 in 10.0 mi West 4.6 mph - N/A   Clear
10:25 PM 64.8 °F 51.8 °F 63% 29.98 in 10.0 mi West 4.6 mph - N/A   Clear
10:45 PM 64.0 °F 52.2 °F 65% 29.98 in 10.0 mi West 4.6 mph - N/A   Clear
11:05 PM 63.9 °F 52.7 °F 67% 29.98 in 10.0 mi West 4.6 mph - N/A   Clear
11:25 PM 63.1 °F 52.7 °F 69% 29.99 in 10.0 mi WSW 3.5 mph - N/A   Clear
11:45 PM 62.6 °F 52.7 °F 70% 29.98 in 10.0 mi SSW 3.5 mph - N/A   Clear